Location: Unspecified
(41.5000°N, 0.0000°E)
Time: 10:41:31
(UTC+00:00)

S-56A Canister/Altair - Visible Passes

Search period start: 16 June 2019 00:00
Search period end: 26 June 2019 00:00
Orbit: 633 x 2499 km, 38.9° (Epoch: 15 June)

Date Brightness Start Highest point End Pass type
(mag) Time Alt. Az. Time Alt. Az. Time Alt. Az.
16 Jun 7.3 21:00:15 10° W 21:05:07 56° S 21:08:02 20° ESE visible
16 Jun 9.4 23:04:48 10° WSW 23:05:26 13° WSW 23:05:26 13° WSW visible
17 Jun 7.4 20:27:25 10° W 20:32:38 61° S 20:36:56 10° ESE visible
17 Jun 8.8 22:32:03 10° W 22:34:20 21° SW 22:34:20 21° SW visible
18 Jun 8.2 21:59:17 10° W 22:03:14 28° SSW 22:03:14 28° SSW visible
19 Jun 8.1 21:26:27 10° W 21:30:50 32° SSW 21:32:09 27° S visible
20 Jun 8.0 20:53:33 10° W 20:58:23 37° SSW 21:01:05 19° SE visible
21 Jun 8.0 20:20:35 10° W 20:25:55 43° SSW 20:30:01 11° SE visible
22 Jun 9.2 21:53:51 10° WSW 21:56:08 13° SW 21:56:24 13° SW visible
23 Jun 9.0 21:20:28 10° WSW 21:23:42 17° SW 21:25:22 14° S visible
24 Jun 9.1 20:47:12 10° W 20:51:16 21° SW 20:54:22 12° S visible
25 Jun 9.0 20:13:56 10° W 20:18:50 26° SW 20:22:48 10° SSE visible
